This demonstration page uses our WeatherBlox Daily Observations layout. Learn more.

38.88101, -77.10428

Hourly Observations for June 4, 2016

Temp ( °F °C ) Dew Point ( °F °C ) Humidity (%) Winds ( mph kmh ) Pressure ( in mb ) Visibility ( mi km ) Precip ( " mm )
12:01 am 00:01 Mostly Cloudy 73 22.8 70 21.1 90 90 SSE 9 15 30.03 1017 10 16.0934 0 0
12:45 am 00:45 Mostly Cloudy 73 22.8 70 21.1 90 90 S 6 9 30.03 1017 10 16.0934 0 0
12:52 am 00:52 Mostly Cloudy 73 22.8 70 21.1 90 90 SSE 6 9 30.03 1017 10 16.0934 0 0
12:59 am 00:59 Mostly Cloudy 73 22.8 70 21.1 90 90 SE 3 6 30.03 1017 10 16.0934 0 0
1:21 am 01:21 Cloudy 73 22.8 70 21.1 90 90 S 3 6 30.03 1017 10 16.0934 0 0
1:52 am 01:52 Cloudy 72 22.2 70 21.1 94 94 SSE 5 7 30.01 1016 10 16.0934 0 0
2:52 am 02:52 Mostly Cloudy 72 22.2 70 21.1 94 94 SE 5 7 30.01 1016 9 14.48406 0 0
3:52 am 03:52 Cloudy 71 21.7 69 20.6 94 94 ESE 8 13 30.01 1016 7 11.26538 0 0
4:36 am 04:36 Cloudy with Mist and Fog 70 21.1 69 20.6 97 97 ESE 7 11 30 1016 6 9.65604 0 0
4:52 am 04:52 Cloudy 71 21.7 69 20.6 94 94 SE 7 11 30.01 1016 7 11.26538 0 0
5:35 am 05:35 Cloudy 70 21.1 69 20.6 97 97 SE 5 7 30 1016 7 11.26538 0 0
5:52 am 05:52 Cloudy 70 21.1 69 20.6 97 97 ESE 6 9 30.02 1017 7 11.26538 0 0
6:52 am 06:52 Cloudy 71 21.7 69 20.6 94 94 SE 7 11 30.03 1017 7 11.26538 0 0
7:01 am 07:01 Cloudy 71 21.7 69 20.6 94 94 SE 6 9 30.03 1017 8 12.87472 0 0
7:52 am 07:52 Cloudy 71 21.7 69 20.6 94 94 SE 5 7 30.03 1017 10 16.0934 0 0
8:01 am 08:01 Cloudy 71 21.7 69 20.6 94 94 SE 5 7 30.03 1017 10 16.0934 0 0
8:52 am 08:52 Cloudy 73 22.8 70 21.1 90 90 SE 5 7 30.04 1017 10 16.0934 0 0
9:10 am 09:10 Cloudy 73 23 70 21 89 89 SE 5 7 30.03 1017 10 16.0934 0 0
9:13 am 09:13 Cloudy 73 22.8 69 20.6 87 87 SE 5 7 30.03 1017 10 16.0934 0 0
9:23 am 09:23 Cloudy 73 22.8 69 20.6 87 87 SSE 5 7 30.03 1017 10 16.0934 0 0
9:52 am 09:52 Cloudy 74 23.3 70 21.1 88 88 S 6 9 30.03 1017 10 16.0934 0 0
9:55 am 09:55 Cloudy 74 23.3 70 21.1 88 88 SSW 7 11 30.03 1017 10 16.0934 0 0
10:27 am 10:27 Cloudy 75 23.9 69 20.6 82 82 S 5 7 30.03 1017 10 16.0934 0 0
10:52 am 10:52 Cloudy 76 24.4 70 21.1 82 82 S 3 6 30.02 1017 10 16.0934 0 0
11:34 am 11:34 Cloudy 77 25 70 21 79 79 S 3 6 30 1016 10 16.0934 0 0
11:52 am 11:52 Cloudy 78 25.6 69 20.6 74 74 S 5 7 30.01 1016 10 16.0934 0 0
12:52 pm 12:52 Cloudy 79 26.1 70 21.1 74 74 SSW 9 15 29.99 1016 10 16.0934 0 0
1:52 pm 13:52 Cloudy 79 26.1 70 21.1 74 74 S 9 15 29.98 1015 10 16.0934 0 0
2:52 pm 14:52 Cloudy 81 27.2 70 21.1 69 69 S 8 13 29.95 1014 10 16.0934 0 0
3:52 pm 15:52 Cloudy 82 27.8 72 22.2 72 72 S 9 15 29.93 1013 10 16.0934 0 0
4:52 pm 16:52 Mostly Cloudy 81 27.2 71 21.7 72 72 S 10 17 29.92 1013 10 16.0934 0 0
5:52 pm 17:52 Cloudy 80 26.7 70 21.1 71 71 S 13 20 29.91 1013 10 16.0934 0 0
6:52 pm 18:52 Cloudy 78 25.6 70 21.1 76 76 S 14 22 29.9 1013 10 16.0934 0 0
7:52 pm 19:52 Cloudy 77 25 69 20.6 77 77 S 14 22 29.91 1013 10 16.0934 0 0
8:00 pm 20:00 Cloudy 77 25 70 21 79 79 S 13 20 29.91 1013 10 16.0934 0 0
8:52 pm 20:52 Cloudy 76 24.4 70 21.1 82 82 S 9 15 29.91 1013 10 16.0934 0 0
9:52 pm 21:52 Cloudy 76 24.4 69 20.6 79 79 SSE 7 11 29.92 1013 10 16.0934 0 0
10:52 pm 22:52 Cloudy 75 23.9 69 20.6 82 82 SSE 6 9 29.9 1013 10 16.0934 0 0
11:21 pm 23:21 Cloudy 75 23.9 70 21.1 84 84 SSE 6 9 29.91 1013 10 16.0934 0 0
11:52 pm 23:52 Cloudy 74 23.3 70 21.1 88 88 SSE 7 11 29.9 1013 10 16.0934 0 0

Powered by AerisWeather